Location: Newark
(40.9833°N, 0.0333°W)
Time: 07:45:10
(UTC+00:00)

Transit 4A - Pass Details

Date: 30 October 2020
Orbit: 862 x 982 km, 66.8° (Epoch: 28 November)

Event Time Altitude Azimuth Distance (km) Brightness Sun altitude
Rises 13:46:06 0° 186° (S) 3,563 11.9 28.1°
Reaches altitude 10° 13:48:43 10° 179° (S) 2,642 11.2 27.8°
Maximum altitude 13:54:27 42° 111° (ESE) 1,340 8.9 27.2°
Drops below altitude 10° 14:00:22 10° 43° (NE) 2,722 9.9 26.5°
Sets 14:03:05 0° 36° (NE) 3,683 10.4 26.2°
